| time (UTC) | temp F | wind direction | speed MPH | gust MPH | rain 1hr in | rain 24hr in | rain mn in | humidity % | barometer mb |
| 20260506101545 | 58 | 30 | 0.0 | 0.0 | 0.00 | 0.00 | 0.00 | 6 | 1011.2 |
| 20260506100007 | 58 | 28 | 0.0 | 0.0 | 0.00 | 0.00 | 0.00 | 4 | 1011.0 |
| 20260506094507 | 58 | 41 | 0.0 | 0.0 | 0.00 | 0.00 | 0.00 | 1 | 1010.7 |
| 20260506093044 | 58 | 40 | 0.0 | 0.0 | 0.00 | 0.00 | 0.00 | 1 | 1010.7 |
| 20260506091537 | 59 | 34 | 0.0 | 0.0 | 0.00 | 0.00 | 0.00 | 1 | 1010.5 |
| 20260506090021 | 59 | 30 | 0.0 | 0.0 | 0.00 | 0.00 | 0.00 | 1 | 1010.5 |
| 20260506084520 | 59 | 37 | 0.0 | 0.0 | 0.00 | 0.00 | 0.00 | 1 | 1010.4 |
| 20260506083012 | 59 | 37 | 0.0 | 0.0 | 0.00 | 0.00 | 0.00 | 1 | 1010.0 |
| 20260506081508 | 60 | 32 | 0.0 | 0.0 | 0.00 | 0.00 | 0.00 | 1 | 1010.2 |
| 20260506073103 | 60 | 32 | 0.0 | 0.0 | 0.00 | 0.00 | 0.00 | 1 | 1009.6 |
| 20260506071605 | 60 | 30 | 0.0 | 0.0 | 0.00 | 0.00 | 0.00 | 1 | 1009.7 |
| 20260506061559 | 61 | 43 | 0.0 | 0.0 | 0.00 | 0.00 | 0.00 | 1 | 1009.7 |
| 20260506044541 | 64 | 317 | 0.0 | 0.0 | 0.00 | 0.00 | 0.00 | 1 | 1009.5 |
| 20260506043021 | 65 | 309 | 0.0 | 0.0 | 0.00 | 0.00 | 0.00 | 1 | 1009.6 |
| 20260506041525 | 65 | 43 | 0.0 | 0.0 | 0.00 | 0.00 | 0.00 | 1 | 1009.5 |
| 20260506040054 | 66 | 32 | 0.0 | 0.0 | 0.00 | 0.00 | 0.00 | 1 | 1009.5 |
| 20260506034553 | 67 | 26 | 0.0 | 0.0 | 0.00 | 0.00 | 0.00 | 1 | 1008.8 |
| 20260506033031 | 67 | 63 | 0.0 | 0.0 | 0.00 | 0.00 | 0.00 | 1 | 1008.5 |
| 20260506031526 | 68 | 46 | 0.0 | 0.0 | 0.00 | 0.00 | 0.00 | 2 | 1008.2 |
| 20260506030002 | 69 | 319 | 0.0 | 0.0 | 0.00 | 0.00 | 0.00 | 8 | 1008.2 |
| 20260506024600 | 69 | 9 | 0.0 | 0.0 | 0.00 | 0.00 | 0.00 | 14 | 1007.9 |
| 20260506023040 | 69 | 324 | 0.0 | 0.0 | 0.00 | 0.00 | 0.00 | 18 | 1007.7 |
| 20260506021537 | 70 | 53 | 0.0 | 0.0 | 0.00 | 0.00 | 0.00 | 19 | 1007.1 |
| 20260506020022 | 71 | 326 | 0.0 | 0.0 | 0.00 | 0.00 | 0.00 | 20 | 1006.9 |
| 20260506014612 | 72 | 24 | 0.0 | 0.0 | 0.00 | 0.00 | 0.00 | 21 | 1006.3 |
| 20260506013053 | 72 | 325 | 0.0 | 0.0 | 0.00 | 0.00 | 0.00 | 24 | 1006.2 |
| 20260506011550 | 73 | 34 | 0.0 | 0.0 | 0.00 | 0.00 | 0.00 | 23 | 1005.8 |
| 20260506010030 | 74 | 34 | 0.0 | 0.0 | 0.00 | 0.00 | 0.00 | 27 | 1005.9 |
| 20260506004536 | 75 | 326 | 0.0 | 0.0 | 0.00 | 0.00 | 0.00 | 30 | 1005.6 |
| 20260506003004 | 77 | 49 | 0.0 | 0.0 | 0.00 | 0.00 | 0.00 | 33 | 1005.3 |
| 20260506001619 | 78 | 66 | 0.0 | 0.0 | 0.00 | 0.00 | 0.00 | 36 | 1004.7 |
| 20260506000045 | 79 | 69 | 0.0 | 0.0 | 0.00 | 0.00 | 0.00 | 38 | 1004.8 |
| 20260505234545 | 81 | 315 | 0.0 | 0.0 | 0.00 | 0.00 | 0.00 | 39 | 1004.3 |
| 20260505233014 | 82 | 5 | 0.0 | 0.0 | 0.00 | 0.00 | 0.00 | 41 | 1004.3 |
| 20260505231510 | 84 | 326 | 0.0 | 0.0 | 0.00 | 0.00 | 0.00 | 42 | 1004.1 |
| 20260505230107 | 85 | 317 | 0.0 | 0.0 | 0.00 | 0.00 | 0.00 | 42 | 1004.0 |
| 20260505224550 | 86 | 321 | 0.0 | 0.0 | 0.00 | 0.00 | 0.00 | 41 | 1003.7 |
| 20260505223053 | 87 | 313 | 0.0 | 0.0 | 0.00 | 0.00 | 0.00 | 41 | 1003.6 |
| 20260505221546 | 88 | 309 | 0.0 | 0.0 | 0.00 | 0.00 | 0.00 | 40 | 1003.3 |
| 20260505220040 | 90 | 258 | 0.0 | 0.0 | 0.00 | 0.00 | 0.00 | 38 | 1003.0 |
| 20260505214548 | 90 | 260 | 0.0 | 0.0 | 0.00 | 0.00 | 0.00 | 39 | 1003.2 |
| 20260505213043 | 90 | 255 | 0.0 | 0.0 | 0.00 | 0.00 | 0.00 | 38 | 1003.2 |
| 20260505211521 | 90 | 259 | 0.0 | 0.0 | 0.00 | 0.00 | 0.00 | 38 | 1003.4 |
| 20260505210006 | 89 | 252 | 0.0 | 0.0 | 0.00 | 0.00 | 0.00 | 37 | 1003.6 |
| 20260505204600 | 89 | 254 | 0.0 | 0.0 | 0.00 | 0.00 | 0.00 | 36 | 1003.8 |
| 20260505203056 | 89 | 262 | 0.0 | 0.0 | 0.00 | 0.00 | 0.00 | 35 | 1004.0 |
| 20260505201557 | 89 | 261 | 0.0 | 0.0 | 0.00 | 0.00 | 0.00 | 33 | 1004.2 |
| 20260505200046 | 88 | 254 | 0.0 | 0.0 | 0.00 | 0.00 | 0.00 | 28 | 1004.4 |
| 20260505194543 | 87 | 252 | 0.0 | 0.0 | 0.00 | 0.00 | 0.00 | 24 | 1004.3 |
| 20260505193045 | 86 | 254 | 0.0 | 0.0 | 0.00 | 0.00 | 0.00 | 20 | 1004.5 |
| 20260505191538 | 85 | 251 | 0.0 | 0.0 | 0.00 | 0.00 | 0.00 | 14 | 1004.4 |
| 20260505190024 | 84 | 267 | 0.0 | 0.0 | 0.00 | 0.00 | 0.00 | 8 | 1004.5 |
| 20260505184507 | 83 | 263 | 0.0 | 0.0 | 0.00 | 0.00 | 0.00 | 4 | 1004.7 |
| 20260505183102 | 82 | 250 | 0.0 | 0.0 | 0.00 | 0.00 | 0.00 | 3 | 1004.8 |
| 20260505181541 | 82 | 243 | 0.0 | 0.0 | 0.00 | 0.00 | 0.00 | 1 | 1004.7 |
| 20260505180041 | 81 | 250 | 0.0 | 0.0 | 0.00 | 0.00 | 0.00 | 1 | 1004.9 |
| 20260505174520 | 81 | 225 | 0.0 | 0.0 | 0.00 | 0.00 | 0.00 | 1 | 1004.8 |
| 20260505173010 | 81 | 292 | 0.0 | 0.0 | 0.00 | 0.00 | 0.00 | 1 | 1004.9 |
| 20260505171551 | 80 | 253 | 0.0 | 0.0 | 0.00 | 0.00 | 0.00 | 1 | 1005.0 |
| 20260505170044 | 80 | 265 | 0.0 | 0.0 | 0.00 | 0.00 | 0.00 | 1 | 1004.9 |
| 20260505164533 | 79 | 236 | 0.0 | 0.0 | 0.00 | 0.00 | 0.00 | 1 | 1004.9 |
| 20260505163023 | 78 | 252 | 0.0 | 0.0 | 0.00 | 0.00 | 0.00 | 1 | 1004.9 |
| 20260505161501 | 78 | 255 | 0.0 | 0.0 | 0.00 | 0.00 | 0.00 | 1 | 1004.9 |
| 20260505153033 | 75 | 255 | 0.0 | 0.0 | 0.00 | 0.00 | 0.00 | 1 | 1004.6 |
| 20260505151510 | 74 | 265 | 0.0 | 0.0 | 0.00 | 0.00 | 0.00 | 1 | 1004.8 |
| 20260505140117 | 72 | 264 | 0.0 | 0.0 | 0.00 | 0.00 | 0.00 | 1 | 1004.8 |
| 20260505124533 | 70 | 259 | 0.0 | 0.0 | 0.00 | 0.00 | 0.00 | 1 | 1004.3 |
| 20260505123046 | 70 | 217 | 0.0 | 0.0 | 0.00 | 0.00 | 0.00 | 1 | 1004.1 |
| 20260505121512 | 69 | 272 | 0.0 | 0.0 | 0.00 | 0.00 | 0.00 | 1 | 1003.9 |
| 20260505120010 | 69 | 240 | 0.0 | 0.0 | 0.00 | 0.00 | 0.00 | 1 | 1003.6 |
| 20260505114508 | 69 | 228 | 0.0 | 0.0 | 0.00 | 0.00 | 0.00 | 1 | 1003.8 |
| 20260505113009 | 69 | 263 | 0.0 | 0.0 | 0.00 | 0.00 | 0.00 | 1 | 1003.5 |
| 20260505111515 | 69 | 227 | 0.0 | 0.0 | 0.00 | 0.00 | 0.00 | 1 | 1003.5 |